KG4WIV Weather Reports


time (UTC)temp
C
wind
direction
speed
KPH
gust
KPH
rain 1hr
cm
rain 24hr
cm
rain mn
cm
humidity
%
barometer
mb
20260906123034 21 312 0.0 0.0 0.00 0.18 0.00 97 1012.0
20260906121532 21 312 0.0 0.0 0.00 0.18 0.00 97 1011.8
20260906120033 21 313 0.0 0.0 0.00 0.18 0.00 97 1011.8
20260906114532 21 312 0.0 0.0 0.00 0.18 0.00 97 1011.5
20260906113032 21 312 0.0 0.0 0.00 0.18 0.00 97 1011.7
20260906111537 21 313 0.0 0.0 0.00 0.18 0.00 97 1011.7
20260906110034 21 312 0.0 0.0 0.00 0.18 0.00 97 1011.7
20260906104538 21 313 0.0 0.0 0.00 0.18 0.00 97 1011.7
20260906103034 21 312 0.0 0.0 0.00 0.18 0.00 97 1011.7
20260906101532 21 312 0.0 0.0 0.00 0.18 0.00 97 1011.5
20260906100029 21 313 0.0 0.0 0.00 0.18 0.00 97 1011.5
20260906094528 21 313 0.0 0.0 0.00 0.18 0.00 97 1011.4
20260906093030 21 312 0.0 0.0 0.00 0.18 0.00 97 1011.6
20260906091530 21 313 0.0 0.0 0.00 0.18 0.00 97 1011.4
20260906090027 21 312 0.0 0.0 0.00 0.18 0.00 97 1011.4
20260906084527 21 313 0.0 0.0 0.00 0.18 0.00 97 1011.5
20260906083027 21 312 0.0 0.0 0.00 0.18 0.00 96 1011.4
20260906081524 21 312 0.0 0.0 0.00 0.18 0.00 96 1011.4
20260906080025 21 313 0.0 0.0 0.00 0.18 0.00 96 1011.3
20260906074525 21 313 0.0 0.0 0.00 0.18 0.00 96 1011.3
20260906073023 21 312 0.0 0.0 0.00 0.18 0.00 96 1011.3
20260906071518 21 313 0.0 0.0 0.00 0.18 0.00 96 1011.4
20260906070017 21 312 0.0 0.0 0.00 0.18 0.00 96 1011.4
20260906064518 21 312 0.0 0.0 0.00 0.18 0.00 96 1011.4
20260906063017 21 312 0.0 0.0 0.00 0.18 0.00 96 1011.4
20260906061514 21 312 0.0 0.0 0.00 0.18 0.00 96 1011.5
20260906060056 21 312 0.0 0.0 0.00 0.18 0.00 96 1011.8
20260906054605 21 313 0.0 0.0 0.00 0.18 0.00 96 1012.1
20260906053055 21 312 0.0 0.0 0.00 0.18 0.00 96 1012.1
20260906051648 21 312 0.0 0.0 0.00 0.18 0.00 96 1012.3
20260906044542 21 312 0.0 0.0 0.00 0.18 0.00 96 1012.3
20260906043040 21 312 0.0 0.0 0.00 0.18 0.00 96 1012.2
20260906041538 21 312 0.0 0.0 0.00 0.18 0.00 96 1012.1
20260906040040 22 312 0.0 0.0 0.00 0.18 0.00 96 1012.2
20260906034542 22 313 0.0 0.0 0.00 0.18 0.18 96 1012.3
20260906033034 22 312 0.0 0.0 0.00 0.18 0.18 96 1012.3
20260906031535 22 312 0.0 0.0 0.00 0.18 0.18 96 1012.4
20260906030036 22 312 0.0 0.0 0.00 0.18 0.18 96 1012.9
20260906024535 22 312 0.0 0.0 0.00 0.18 0.18 96 1012.9
20260906023030 22 312 0.0 0.0 0.00 0.18 0.18 95 1012.6
20260906021527 22 313 0.0 0.0 0.00 0.18 0.18 95 1012.6
20260906020031 22 312 0.0 0.0 0.00 0.18 0.18 95 1012.3
20260906014535 22 313 0.0 0.0 0.00 0.18 0.18 95 1012.5
20260906013030 22 313 0.0 0.0 0.00 0.18 0.18 95 1012.6
20260906011525 22 312 0.0 0.0 0.00 0.18 0.18 95 1012.4
20260906010025 22 278 0.0 1.6 0.00 0.18 0.18 96 1011.9
20260906004525 22 303 0.0 0.0 0.00 0.18 0.18 95 1011.1
20260906003024 23 303 0.0 0.0 0.00 0.18 0.18 95 1011.0
20260906001523 23 303 0.0 1.6 0.00 0.18 0.18 95 1010.8
20260906000024 23 5 0.0 0.0 0.00 0.18 0.18 95 1010.3
20260905234523 23 24 0.0 0.0 0.00 0.18 0.18 94 1010.0
20260905233033 23 24 0.0 1.6 0.00 0.18 0.18 94 1009.9
20260905231523 23 15 0.0 0.0 0.10 0.18 0.18 94 1010.2
20260905230021 23 15 0.0 1.6 0.18 0.18 0.18 93 1010.5
20260905224522 23 355 0.0 3.2 0.18 0.18 0.18 92 1010.9
20260905223020 23 350 0.0 4.8 0.15 0.15 0.15 89 1011.5
20260905221530 27 33 3.2 9.7 0.08 0.08 0.08 72 1010.9
20260905220018 32 49 0.0 6.4 0.00 0.00 0.00 60 1011.3
20260905214520 33 360 0.0 1.6 0.00 0.00 0.00 52 1009.5
20260905213018 35 304 0.0 0.0 0.00 0.00 0.00 53 1009.2
20260905211527 35 258 0.0 3.2 0.00 0.00 0.00 47 1009.2
20260905210015 35 197 1.6 3.2 0.00 0.00 0.00 46 1009.4
20260905204511 35 255 1.6 3.2 0.00 0.00 0.00 48 1009.6
20260905203011 35 234 0.0 1.6 0.00 0.00 0.00 51 1009.7
20260905201506 35 260 1.6 4.8 0.00 0.00 0.00 49 1010.1
20260905200004 35 355 0.0 3.2 0.00 0.00 0.00 50 1010.2
20260905194502 35 255 1.6 4.8 0.00 0.00 0.00 50 1010.2
20260905193111 34 206 0.0 3.2 0.00 0.00 0.00 52 1010.4
20260905191555 34 355 0.0 1.6 0.00 0.00 0.00 53 1010.6
20260905190053 34 29 0.0 3.2 0.00 0.00 0.00 54 1010.9
20260905184550 34 254 0.0 3.2 0.00 0.00 0.00 51 1011.1
20260905183055 33 219 0.0 4.8 0.00 0.00 0.00 51 1011.3
20260905181546 33 11 0.0 3.2 0.00 0.00 0.00 54 1011.4
20260905180044 34 29 0.0 4.8 0.00 0.00 0.00 55 1011.7
20260905174542 33 311 0.0 4.8 0.00 0.00 0.00 56 1011.8
20260905173042 33 42 0.0 3.2 0.00 0.00 0.00 58 1012.0
20260905171536 33 234 0.0 4.8 0.00 0.00 0.00 58 1012.3
20260905170032 32 312 0.0 4.8 0.00 0.00 0.00 60 1012.5
20260905164531 32 236 0.0 4.8 0.00 0.00 0.00 60 1012.6
20260905163037 32 106 0.0 4.8 0.00 0.00 0.00 62 1012.7
20260905161522 32 31 0.0 3.2 0.00 0.00 0.00 65 1013.1
20260905160025 31 16 0.0 3.2 0.00 0.00 0.00 66 1013.1
20260905154603 31 205 0.0 3.2 0.00 0.00 0.00 69 1013.5
20260905153047 30 205 0.0 1.6 0.00 0.00 0.00 70 1013.4
20260905151541 30 207 0.0 1.6 0.00 0.00 0.00 72 1013.6
20260905150039 29 250 0.0 1.6 0.00 0.00 0.00 75 1013.6
20260905144533 28 236 0.0 3.2 0.00 0.00 0.00 76 1013.7
20260905143029 28 78 0.0 0.0 0.00 0.00 0.00 79 1013.9
20260905141524 27 78 0.0 0.0 0.00 0.00 0.00 83 1014.0
20260905140021 26 78 0.0 0.0 0.00 0.00 0.00 85 1014.1
20260905134507 25 78 0.0 0.0 0.00 0.00 0.00 87 1014.0
20260905133100 25 78 0.0 0.0 0.00 0.00 0.00 91 1014.2
20260905131551 23 78 0.0 0.0 0.00 0.00 0.00 93 1014.4
20260905130050 23 78 0.0 0.0 0.00 0.00 0.00 96 1014.5
20260905124548 22 78 0.0 0.0 0.00 0.00 0.00 96 1014.4